Terug naar catalogus

ATLAS 5 CENTAUR DEB

LostHEO
NORAD 49350·DEBRIS·🇺🇸 United States

Gelanceerd Oct 17, 2018 vanaf Cape Canaveral Space Force Station

Loading…

Volgende Passages (komende 24 uur)

TLE

VerouderdSource: Space-Track

Epoch: Jan 4, 2022, 08:29 UTC

1 49350U 18079FB  22004.35389420 -.00000060  00000-0  00000+0 0  9994
2 49350  11.4071 165.1154 4568404  71.7083 331.6995  1.99225022  2546

Volg ATLAS 5 CENTAUR DEB in realtime met AllMySat

Download on the App Store